EW5412 Weather Reports


time (UTC)temp
F
wind
direction
speed
knots
gust
knots
rain 1hr
in
rain 24hr
in
rain mn
in
humidity
%
barometer
mb
20260505041602 57 302 1.7 7.0 0.18 0.22 0.07 90 1002.1
20260505040055 57 9 2.6 10.4 0.15 0.15 0.00 89 1002.0
20260505034544 58 328 6.1 11.3 0.10 0.10 0.10 86 1003.0
20260505033046 59 21 7.0 13.0 0.06 0.06 0.06 82 1002.9
20260505031546 61 338 6.1 26.9 0.04 0.04 0.04 77 1002.9
20260505030043 69 346 4.3 9.6 0.00 0.00 0.00 55 1001.6
20260505024541 69 298 5.2 11.3 0.00 0.00 0.00 55 1000.8
20260505023044 69 288 5.2 9.6 0.00 0.00 0.00 57 1000.8
20260505021542 68 276 3.5 7.8 0.00 0.00 0.00 58 1000.6
20260505020039 69 263 4.3 7.8 0.00 0.00 0.00 58 1000.5
20260505014557 69 266 4.3 8.7 0.00 0.00 0.00 59 1000.4
20260505013040 68 276 3.5 6.1 0.00 0.00 0.00 61 1000.4
20260505011537 68 262 1.7 5.2 0.00 0.00 0.00 61 1000.1
20260505010036 69 253 1.7 7.0 0.00 0.00 0.00 59 999.9
20260505004540 70 272 4.3 10.4 0.00 0.00 0.00 58 999.9
20260505003035 70 295 6.1 12.2 0.00 0.00 0.00 59 1000.1
20260505001536 70 300 6.1 14.8 0.00 0.00 0.00 59 1000.1
20260505000040 71 285 5.2 14.8 0.00 0.00 0.00 59 1000.1
20260504234538 71 301 11.3 17.4 0.00 0.00 0.00 58 1000.0
20260504233033 72 274 11.3 20.9 0.00 0.00 0.00 57 999.8
20260504231536 72 288 9.6 16.5 0.00 0.00 0.00 57 1000.0
20260504230030 71 301 11.3 20.9 0.00 0.00 0.00 56 1000.4
20260504224530 72 288 11.3 24.3 0.00 0.00 0.00 53 1000.6
20260504223029 73 307 13.9 28.7 0.00 0.00 0.00 51 1000.9
20260504221534 73 294 13.9 27.8 0.00 0.00 0.00 48 1001.0
20260504220028 74 305 18.2 27.8 0.00 0.00 0.00 47 1000.9
20260504214527 74 340 12.2 25.2 0.00 0.00 0.00 48 1001.0
20260504213045 76 292 12.2 28.7 0.00 0.00 0.00 46 1000.8
20260504211526 75 300 15.6 25.2 0.00 0.00 0.00 46 1000.9
20260504210027 75 319 13.9 29.5 0.00 0.00 0.00 47 1000.6
20260504204524 75 285 13.0 30.4 0.00 0.00 0.00 45 1000.6
20260504203023 76 289 12.2 26.1 0.00 0.00 0.00 46 1000.7
20260504201526 76 352 13.0 25.2 0.00 0.00 0.00 45 1000.9
20260504200020 75 299 9.6 23.5 0.00 0.00 0.00 49 1001.0
20260504194519 76 290 12.2 25.2 0.00 0.00 0.00 49 1001.0
20260504193017 75 280 13.9 22.6 0.00 0.00 0.00 48 1001.1
20260504191515 75 288 14.8 25.2 0.00 0.00 0.00 48 1001.2
20260504190012 75 311 10.4 21.7 0.00 0.00 0.00 50 1001.5
20260504184514 74 332 12.2 22.6 0.00 0.00 0.00 50 1001.7
20260504183007 73 270 13.0 24.3 0.00 0.00 0.00 52 1001.8
20260504181506 73 302 13.0 21.7 0.00 0.00 0.00 52 1002.0
20260504180006 73 271 8.7 22.6 0.00 0.00 0.00 54 1002.1
20260504174617 73 296 8.7 17.4 0.00 0.00 0.00 55 1002.3
20260504173059 71 304 9.6 18.2 0.00 0.00 0.00 57 1002.5
20260504171555 70 308 10.4 18.2 0.00 0.00 0.00 57 1002.8
20260504081522 51 270 5.2 8.7 0.00 0.00 0.00 75 1006.1
20260504060104 51 288 5.2 9.6 0.00 0.00 0.00 77 1007.8
20260504044600 50 277 1.7 6.1 0.00 0.00 0.00 78 1008.6
20260504043049 50 280 2.6 5.2 0.00 0.00 0.00 79 1008.6